This is the latest recevied weather packets stored in our database for station/object W5ZYX. If no packets are shown the sender has not sent any weather packets the latest 10 day(s).
| Time | Temp. | Humidity | Pressure | Rain* | Wind** | Luminosity | Snow |
|---|---|---|---|---|---|---|---|
| 1777571146 | 18.33° C | 95% | 1014.1 hPa | 0 mm | - | - | - |
| 1777570837 | 18.33° C | 96% | 1014 hPa | 0 mm | - | - | - |
| 1777570537 | 18.33° C | 95% | 1014 hPa | 0.25 mm | - | - | - |
| 1777570261 | 18.33° C | 96% | 1013.8 hPa | 1.52 mm | - | - | - |
| 1777569937 | 18.33° C | 96% | 1013.6 hPa | 6.1 mm | - | - | - |
| 1777569637 | 18.33° C | 96% | 1013.8 hPa | 8.89 mm | - | - | - |
| 1777569352 | 18.33° C | 96% | 1013.8 hPa | 10.16 mm | - | - | - |
| 1777569037 | 18.33° C | 96% | 1013.6 hPa | 10.41 mm | - | - | - |
| 1777568737 | 18.33° C | 96% | 1013.5 hPa | 10.41 mm | - | - | - |
| 1777568462 | 18.33° C | 96% | 1013 hPa | 10.41 mm | - | - | - |
| 1777568138 | 18.33° C | 96% | 1013.2 hPa | 10.41 mm | - | - | - |
| 1777567837 | 18.33° C | 96% | 1013.4 hPa | 10.41 mm | - | - | - |
| 1777567552 | 18.33° C | 96% | 1013.2 hPa | 10.41 mm | - | - | - |
| 1777567235 | 17.78° C | 96% | 1013.5 hPa | 10.41 mm | - | - | - |
| 1777566936 | 17.78° C | 96% | 1013.8 hPa | 10.16 mm | - | - | - |
| 1777566652 | 17.78° C | 96% | 1014.3 hPa | 8.89 mm | - | - | - |
| 1777566335 | 17.78° C | 96% | 1014.9 hPa | 4.06 mm | - | - | - |
| 1777566038 | 17.78° C | 96% | 1013.8 hPa | 1.27 mm | - | - | - |
| 1777565752 | 18.33° C | 96% | 1013.2 hPa | 0.25 mm | - | - | - |
| 1777565435 | 18.33° C | 96% | 1013 hPa | 0 mm | - | - | - |
| 1777565136 | 18.33° C | 96% | 1012.7 hPa | 0 mm | - | - | - |
| 1777564858 | 18.33° C | 96% | 1012.6 hPa | 0 mm | - | - | - |
| 1777564538 | 18.33° C | 96% | 1012.5 hPa | 0 mm | - | - | - |
| 1777564235 | 18.33° C | 96% | 1012.4 hPa | 0 mm | - | - | - |
| 1777563948 | 18.33° C | 96% | 1012.5 hPa | 0 mm | - | - | - |
* Rain latest hour (hover to see other rain measurements)
** Current wind speed in m/s (hover to see current wind gust speed)